Weather History for Fredericksburg, VA

Change the Weather History Date:

Friday, February 1, 2013

  Actual Average (KNYG) Record (KNYG)
Temperature  
Mean Temperature 29 °F -  
Max Temperature 36 °F 42 °F 77 °F (2002)
Min Temperature 23 °F 26 °F 18 °F (2000)
Degree Days  
Heating Degree Days 36    
Moisture  
Dew Point 12 °F    
Average Humidity 47    
Maximum Humidity 87    
Minimum Humidity 29    
Precipitation  
Precipitation 0.00 in - - ()
Sea Level Pressure  
Sea Level Pressure 30.12 in    
Wind  
Wind Speed 9 mph (NW)    
Max Wind Speed 24 mph    
Max Gust Speed 38 mph    
Visibility 10 miles    
Events Snow    
Averages and records for this station are not official NWS values.
T = Trace of Precipitation, MM = Missing Value Source: NWS Daily Summary

Daily Weather History Graph

Daily Weather History Graph

Search for Another Location

Airport:

Trip Planner

Search our weather history database for the weather conditions in past years. The results will help you decide how hot, cold, wet, or windy it might be!

Date:

Astronomy

Feb. 01, 2013 Rise Set
Actual Time 7:14 AM EST 5:32 PM EST
Civil Twilight 6:46 AM EST 6:00 PM EST
Nautical Twilight 6:15 AM EST 6:32 PM EST
Astronomical Twilight 5:44 AM EST 7:03 PM EST
Moon 11:31 PM EST (2/1) 9:52 AM EST (2/1)
Length of Visible Light 11h 13m
Length of Day
10h 18m
Waning Gibbous, 70% of the Moon is Illuminated
Feb 1
Waning Gibbous
Feb 3
Last Quarter
Feb 10
New
Feb 17
First Quarter
Feb 25
Full

Hourly Weather History & Observations

Time (EST) Temp. Windchill Dew Point Humidity Pressure Visibility Wind Dir Wind Speed Gust Speed Precip Events Conditions
12:15 AM 33.8 °F 29.6 °F 20.7 °F 59% 29.91 in 10.0 mi South 4.6 mph - N/A   Unknown
12:53 AM 30.2 °F 24.3 °F 21.2 °F 69% 29.91 in 10.0 mi SSW 5.8 mph - N/A   Unknown
1:15 AM 33.8 °F 27.0 °F 21.2 °F 60% 29.91 in 10.0 mi South 8.1 mph - N/A   Unknown
1:33 AM 35.6 °F 29.9 °F 19.4 °F 52% 29.91 in 10.0 mi South 6.9 mph - N/A   Overcast
1:55 AM 35.6 °F 28.0 °F 19.4 °F 52% 29.90 in 10.0 mi SSW 10.4 mph - N/A   Overcast
2:15 AM 35.6 °F 29.9 °F 21.2 °F 56% 29.88 in 10.0 mi South 6.9 mph - N/A   Overcast
2:33 AM 35.6 °F 30.7 °F 21.2 °F 56% 29.87 in 10.0 mi South 5.8 mph - N/A   Mostly Cloudy
2:55 AM 35.6 °F 30.7 °F 21.2 °F 56% 29.86 in 10.0 mi South 5.8 mph - N/A   Mostly Cloudy
3:13 AM 35.6 °F 29.2 °F 21.2 °F 56% 29.84 in 10.0 mi South 8.1 mph - N/A   Overcast
3:36 AM 35.6 °F 32.8 °F 21.2 °F 56% 29.82 in 10.0 mi South 3.5 mph - N/A   Unknown
3:53 AM 35.6 °F - 21.2 °F 56% 29.81 in 10.0 mi Calm Calm - N/A   Unknown
4:16 AM 35.6 °F - 23.0 °F 60% 29.81 in 10.0 mi Calm Calm - N/A   Overcast
4:35 AM 35.6 °F 31.7 °F 24.8 °F 65% 29.80 in 10.0 mi South 4.6 mph - N/A   Unknown
4:55 AM 35.6 °F - 23.0 °F 60% 29.81 in 10.0 mi Calm Calm - N/A   Unknown
5:16 AM 35.6 °F 32.8 °F 23.0 °F 60% 29.81 in 10.0 mi WNW 3.5 mph - N/A   Unknown
5:53 AM 35.6 °F 29.2 °F 24.8 °F 65% 29.84 in 10.0 mi WNW 8.1 mph - N/A   Overcast
6:13 AM 35.6 °F 27.1 °F 26.6 °F 70% 29.86 in 10.0 mi WNW 12.7 mph 21.9 mph N/A Snow Light Snow
6:33 AM 33.8 °F 24.8 °F 30.2 °F 87% 29.88 in 2.5 mi NW 12.7 mph 20.7 mph N/A Snow Light Snow
6:56 AM 33.8 °F 24.8 °F 28.4 °F 81% 29.90 in 10.0 mi NW 12.7 mph 17.3 mph N/A   Mostly Cloudy
7:17 AM 32.0 °F 19.8 °F 26.6 °F 80% 29.93 in 1.8 mi NNW 20.7 mph 31.1 mph N/A Snow Light Snow
7:33 AM 32.0 °F 22.5 °F 26.6 °F 80% 29.95 in 4.0 mi NW 12.7 mph 21.9 mph N/A Snow Light Snow
7:53 AM 32.0 °F 26.4 °F 26.6 °F 80% 29.97 in 10.0 mi NW 5.8 mph 16.1 mph N/A   Mostly Cloudy
8:13 AM 32.0 °F 24.8 °F 24.8 °F 75% 29.99 in 10.0 mi NW 8.1 mph - N/A   Unknown
8:33 AM 33.8 °F 25.8 °F 23.0 °F 65% 30.00 in 10.0 mi NW 10.4 mph 16.1 mph N/A   Unknown
9:17 AM 32.0 °F 18.9 °F 15.8 °F 51% 30.04 in 10.0 mi NW 24.2 mph 38.0 mph N/A   Scattered Clouds
9:35 AM 32.9 °F 21.0 °F 14.7 °F 47% 30.05 in 10.0 mi NW 20.7 mph 31.1 mph N/A   Scattered Clouds
10:15 AM 32.7 °F 23.4 °F 18.5 °F 56% 30.09 in 10.0 mi NW 12.7 mph 24.2 mph N/A   Scattered Clouds
10:35 AM 31.8 °F 19.3 °F 14.2 °F 48% 30.11 in 10.0 mi NW 21.9 mph 35.7 mph N/A   Clear
10:55 AM 32.9 °F 21.6 °F 9.7 °F 38% 30.12 in 10.0 mi NNW 18.4 mph 33.4 mph N/A   Clear
11:15 AM 32.9 °F 21.0 °F 8.4 °F 36% 30.13 in 10.0 mi NW 20.7 mph 34.5 mph N/A   Clear
11:35 AM 32.5 °F 21.5 °F 6.8 °F 34% 30.15 in 10.0 mi NW 17.3 mph 29.9 mph N/A   Mostly Cloudy
11:55 AM 33.1 °F 20.9 °F 8.1 °F 35% 30.16 in 10.0 mi WNW 21.9 mph 27.6 mph N/A   Mostly Cloudy
12:15 PM 32.9 °F 23.2 °F 5.2 °F 31% 30.16 in 10.0 mi NNW 13.8 mph 26.5 mph N/A   Mostly Cloudy
12:35 PM 33.4 °F 22.7 °F 5.4 °F 31% 30.16 in 10.0 mi WNW 17.3 mph 28.8 mph N/A   Scattered Clouds
12:55 PM 33.8 °F 22.2 °F 4.8 °F 30% 30.16 in 10.0 mi NW 20.7 mph 26.5 mph N/A   Clear
1:15 PM 33.3 °F 23.7 °F 4.5 °F 30% 30.17 in 10.0 mi West 13.8 mph 20.7 mph N/A   Clear
1:35 PM 32.2 °F 22.3 °F 5.0 °F 32% 30.17 in 10.0 mi NW 13.8 mph 20.7 mph N/A   Scattered Clouds
1:55 PM 33.1 °F 21.5 °F 3.4 °F 29% 30.17 in 10.0 mi NW 19.6 mph 26.5 mph N/A   Clear
2:15 PM 34.0 °F 24.2 °F 4.6 °F 29% 30.18 in 10.0 mi NW 15.0 mph 20.7 mph N/A   Clear
2:35 PM 34.0 °F 24.2 °F 4.5 °F 29% 30.18 in 10.0 mi WNW 15.0 mph 24.2 mph N/A   Scattered Clouds
2:55 PM 33.3 °F 24.1 °F 3.7 °F 29% 30.19 in 10.0 mi NNW 12.7 mph 23.0 mph N/A   Clear
3:15 PM 33.8 °F 23.9 °F 4.3 °F 29% 30.20 in 10.0 mi NW 15.0 mph 20.7 mph N/A   Clear
3:35 PM 33.4 °F 25.4 °F 4.1 °F 29% 30.21 in 10.0 mi NNW 10.4 mph 23.0 mph N/A   Clear
3:55 PM 33.3 °F 24.6 °F 3.7 °F 29% 30.22 in 10.0 mi WNW 11.5 mph 18.4 mph N/A   Clear
4:15 PM 32.0 °F 22.5 °F 3.0 °F 29% 30.22 in 10.0 mi NNW 12.7 mph 19.6 mph N/A   Unknown
4:35 PM 32.2 °F 21.8 °F 3.9 °F 30% 30.23 in 10.0 mi WNW 15.0 mph 23.0 mph N/A   Unknown
4:55 PM 32.0 °F 23.6 °F 3.9 °F 31% 30.24 in 10.0 mi NW 10.4 mph 18.4 mph N/A   Unknown
5:15 PM 31.3 °F 21.6 °F 3.6 °F 31% 30.25 in 10.0 mi NW 12.7 mph 17.3 mph N/A   Unknown
5:35 PM 30.2 °F 22.6 °F 3.0 °F 32% 30.27 in 10.0 mi NNW 8.1 mph 19.6 mph N/A   Clear
5:55 PM 29.8 °F 21.5 °F 3.0 °F 32% 30.28 in 10.0 mi NNW 9.2 mph 16.1 mph N/A   Clear
6:15 PM 29.3 °F 19.6 °F 3.2 °F 33% 30.28 in 10.0 mi NNW 11.5 mph 17.3 mph N/A   Clear
6:35 PM 28.4 °F 20.4 °F 4.1 °F 36% 30.30 in 10.0 mi NW 8.1 mph - N/A   Clear
6:55 PM 28.2 °F 21.0 °F 3.4 °F 35% 30.31 in 10.0 mi NW 6.9 mph - N/A   Clear
7:15 PM 27.5 °F 19.3 °F 3.7 °F 36% 30.32 in 10.0 mi NNW 8.1 mph - N/A   Clear
7:35 PM 27.5 °F 18.0 °F 4.5 °F 37% 30.33 in 10.0 mi NW 10.4 mph - N/A   Clear
7:55 PM 27.0 °F 20.5 °F 4.3 °F 38% 30.33 in 10.0 mi NNW 5.8 mph - N/A   Clear
8:15 PM 26.6 °F 17.5 °F 4.1 °F 38% 30.35 in 10.0 mi NW 9.2 mph - N/A   Unknown
8:35 PM 26.2 °F 18.6 °F 4.5 °F 39% 30.35 in 10.0 mi NNW 6.9 mph - N/A   Unknown
8:55 PM 25.7 °F 21.5 °F 4.5 °F 40% 30.36 in 10.0 mi NNW 3.5 mph - N/A   Unknown
9:15 PM 25.5 °F 16.2 °F 4.8 °F 41% 30.36 in 10.0 mi NNW 9.2 mph - N/A   Unknown
9:35 PM 25.2 °F 16.5 °F 5.0 °F 42% 30.37 in 10.0 mi NNW 8.1 mph - N/A   Unknown
9:55 PM 24.8 °F 17.9 °F 5.0 °F 43% 30.37 in 10.0 mi NNW 5.8 mph - N/A   Unknown
10:15 PM 24.4 °F 17.5 °F 5.7 °F 45% 30.38 in 10.0 mi NNW 5.8 mph - N/A   Unknown
10:35 PM 24.1 °F 17.0 °F 5.7 °F 46% 30.39 in 10.0 mi NNW 5.8 mph - N/A   Unknown
10:55 PM 23.9 °F 18.0 °F 5.4 °F 45% 30.39 in 10.0 mi NNW 4.6 mph - N/A   Unknown
11:15 PM 23.7 °F 17.8 °F 5.7 °F 46% 30.39 in 10.0 mi NNW 4.6 mph - N/A   Unknown
11:35 PM 23.2 °F 17.2 °F 5.9 °F 48% 30.40 in 10.0 mi NW 4.6 mph - N/A   Unknown
11:55 PM 23.0 °F - 5.7 °F 48% 30.41 in 10.0 mi Calm Calm - N/A   Unknown